Year,Month,Day,Hour,Minute,Value (Times are PST for temperature in C)
2015,06,10,00,00,10.40
2015,06,10,00,01,10.40
2015,06,10,00,02,10.40
2015,06,10,00,03,10.40
2015,06,10,00,04,10.40
2015,06,10,00,05,10.40
2015,06,10,00,06,10.40
2015,06,10,00,07,10.40
2015,06,10,00,08,10.40
2015,06,10,00,09,10.40
2015,06,10,00,10,10.30
2015,06,10,00,11,10.30
2015,06,10,00,12,10.30
2015,06,10,00,13,10.30
2015,06,10,00,14,10.30
2015,06,10,00,15,10.30
2015,06,10,00,16,10.30
2015,06,10,00,17,10.30
2015,06,10,00,18,10.20
2015,06,10,00,19,10.20
2015,06,10,00,20,10.20
2015,06,10,00,21,10.20
2015,06,10,00,22,10.20
2015,06,10,00,23,10.20
2015,06,10,00,24,10.20
2015,06,10,00,25,10.20
2015,06,10,00,26,10.20
2015,06,10,00,27,10.20
2015,06,10,00,28,10.20
2015,06,10,00,29,10.20
2015,06,10,00,30,10.10
2015,06,10,00,31,10.10
2015,06,10,00,32,10.10
2015,06,10,00,33,10.10
2015,06,10,00,34,10.00
2015,06,10,00,35,10.00
2015,06,10,00,36,10.00
2015,06,10,00,37,10.00
2015,06,10,00,38,10.00
2015,06,10,00,39,10.00
2015,06,10,00,40,10.00
2015,06,10,00,41,10.00
2015,06,10,00,42,9.90
2015,06,10,00,43,10.00
2015,06,10,00,44,10.00
2015,06,10,00,45,10.00
2015,06,10,00,46,10.00
2015,06,10,00,47,10.00
2015,06,10,00,48,10.00
2015,06,10,00,49,10.00
2015,06,10,00,50,10.00
2015,06,10,00,51,10.00
2015,06,10,00,52,10.00
2015,06,10,00,53,10.00
2015,06,10,00,54,10.00
2015,06,10,00,55,9.90
2015,06,10,00,56,9.90
2015,06,10,00,57,9.90
2015,06,10,00,58,9.90
2015,06,10,00,59,9.80
2015,06,10,01,00,9.80
2015,06,10,01,01,9.80
2015,06,10,01,02,9.80
2015,06,10,01,03,9.80
2015,06,10,01,04,9.80
2015,06,10,01,05,9.80
2015,06,10,01,06,9.80
2015,06,10,01,07,9.80
2015,06,10,01,08,9.80
2015,06,10,01,09,9.70
2015,06,10,01,10,9.70
2015,06,10,01,11,9.70
2015,06,10,01,12,9.70
2015,06,10,01,13,9.70
2015,06,10,01,14,9.70
2015,06,10,01,15,9.70
2015,06,10,01,16,9.70
2015,06,10,01,17,9.70
2015,06,10,01,18,9.70
2015,06,10,01,19,9.70
2015,06,10,01,20,9.70
2015,06,10,01,21,9.70
2015,06,10,01,22,9.70
2015,06,10,01,23,9.70
2015,06,10,01,24,9.70
2015,06,10,01,25,9.70
2015,06,10,01,26,9.70
2015,06,10,01,27,9.70
2015,06,10,01,28,9.70
2015,06,10,01,29,9.80
2015,06,10,01,30,9.80
2015,06,10,01,31,9.80
2015,06,10,01,32,9.70
2015,06,10,01,33,9.70
2015,06,10,01,34,9.70
2015,06,10,01,35,9.70
2015,06,10,01,36,9.70
2015,06,10,01,37,9.70
2015,06,10,01,38,9.70
2015,06,10,01,39,9.60
2015,06,10,01,40,9.60
2015,06,10,01,41,9.60
2015,06,10,01,42,9.60
2015,06,10,01,43,9.60
2015,06,10,01,44,9.60
2015,06,10,01,45,9.60
2015,06,10,01,46,9.60
2015,06,10,01,47,9.60
2015,06,10,01,48,9.60
2015,06,10,01,49,9.60
2015,06,10,01,50,9.60
2015,06,10,01,51,9.70
2015,06,10,01,52,9.70
2015,06,10,01,53,9.70
2015,06,10,01,54,9.70
2015,06,10,01,55,9.70
2015,06,10,01,56,9.60
2015,06,10,01,57,9.60
2015,06,10,01,58,9.60
2015,06,10,01,59,9.50
2015,06,10,02,00,9.50
2015,06,10,02,01,9.50
2015,06,10,02,02,9.40
2015,06,10,02,03,9.40
2015,06,10,02,04,9.40
2015,06,10,02,05,9.40
2015,06,10,02,06,9.40
2015,06,10,02,07,9.40
2015,06,10,02,08,9.40
2015,06,10,02,09,9.30
2015,06,10,02,10,9.30
2015,06,10,02,11,9.30
2015,06,10,02,12,9.30
2015,06,10,02,13,9.30
2015,06,10,02,14,9.30
2015,06,10,02,15,9.30
2015,06,10,02,16,9.30
2015,06,10,02,17,9.30
2015,06,10,02,18,9.30
2015,06,10,02,19,9.30
2015,06,10,02,20,9.30
2015,06,10,02,21,9.30
2015,06,10,02,22,9.30
2015,06,10,02,23,9.30
2015,06,10,02,24,9.30
2015,06,10,02,25,9.30
2015,06,10,02,26,9.30
2015,06,10,02,27,9.30
2015,06,10,02,28,9.30
2015,06,10,02,29,9.30
2015,06,10,02,30,9.20
2015,06,10,02,31,9.20
2015,06,10,02,32,9.20
2015,06,10,02,33,9.20
2015,06,10,02,34,9.20
2015,06,10,02,35,9.20
2015,06,10,02,36,9.20
2015,06,10,02,37,9.20
2015,06,10,02,38,9.20
2015,06,10,02,39,9.20
2015,06,10,02,40,9.20
2015,06,10,02,41,9.20
2015,06,10,02,42,9.20
2015,06,10,02,43,9.20
2015,06,10,02,44,9.20
2015,06,10,02,45,9.20
2015,06,10,02,46,9.10
2015,06,10,02,47,9.10
2015,06,10,02,48,9.10
2015,06,10,02,49,9.10
2015,06,10,02,50,9.10
2015,06,10,02,51,9.10
2015,06,10,02,52,9.10
2015,06,10,02,53,9.10
2015,06,10,02,54,9.10
2015,06,10,02,55,9.10
2015,06,10,02,56,9.10
2015,06,10,02,57,9.10
2015,06,10,02,58,9.10
2015,06,10,02,59,9.10
2015,06,10,03,00,9.00
2015,06,10,03,01,9.00
2015,06,10,03,02,9.00
2015,06,10,03,03,9.00
2015,06,10,03,04,9.00
2015,06,10,03,05,9.00
2015,06,10,03,06,9.00
2015,06,10,03,07,9.00
2015,06,10,03,08,9.00
2015,06,10,03,09,9.00
2015,06,10,03,10,8.90
2015,06,10,03,11,8.90
2015,06,10,03,12,8.90
2015,06,10,03,13,8.90
2015,06,10,03,14,8.90
2015,06,10,03,15,8.90
2015,06,10,03,16,8.90
2015,06,10,03,17,8.90
2015,06,10,03,18,8.90
2015,06,10,03,19,8.90
2015,06,10,03,20,8.90
2015,06,10,03,21,8.90
2015,06,10,03,22,8.90
2015,06,10,03,23,8.90
2015,06,10,03,24,8.90
2015,06,10,03,25,8.90
2015,06,10,03,26,8.90
2015,06,10,03,27,8.90
2015,06,10,03,28,8.90
2015,06,10,03,29,8.90
2015,06,10,03,30,8.90
2015,06,10,03,31,8.90
2015,06,10,03,32,8.90
2015,06,10,03,33,8.90
2015,06,10,03,34,8.90
2015,06,10,03,35,8.90
2015,06,10,03,36,8.90
2015,06,10,03,37,8.90
2015,06,10,03,38,8.90
2015,06,10,03,39,8.90
2015,06,10,03,40,8.90
2015,06,10,03,41,8.90
2015,06,10,03,42,8.90
2015,06,10,03,43,8.90
2015,06,10,03,44,8.90
2015,06,10,03,45,8.90
2015,06,10,03,46,8.90
2015,06,10,03,47,8.80
2015,06,10,03,48,8.80
2015,06,10,03,49,8.80
2015,06,10,03,50,8.80
2015,06,10,03,51,8.80
2015,06,10,03,52,8.90
2015,06,10,03,53,8.90
2015,06,10,03,54,8.90
2015,06,10,03,55,8.90
2015,06,10,03,56,8.90
2015,06,10,03,57,8.90
2015,06,10,03,58,8.90
2015,06,10,03,59,8.90
2015,06,10,04,00,8.90
2015,06,10,04,01,8.90
2015,06,10,04,02,8.90
2015,06,10,04,03,8.90
2015,06,10,04,04,8.80
2015,06,10,04,05,8.80
2015,06,10,04,06,8.80
2015,06,10,05,02,8.70
2015,06,10,05,03,8.60
2015,06,10,05,04,8.60
2015,06,10,05,05,8.60
2015,06,10,05,06,8.60
2015,06,10,05,07,8.60
2015,06,10,05,08,8.60
2015,06,10,05,09,8.60
2015,06,10,05,10,8.60
2015,06,10,05,11,8.60
2015,06,10,05,12,8.60
2015,06,10,05,13,8.60
2015,06,10,05,14,8.50
2015,06,10,05,15,8.50
2015,06,10,05,16,8.50
2015,06,10,05,17,8.50
2015,06,10,05,18,8.50
2015,06,10,05,19,8.40
2015,06,10,05,20,8.40
2015,06,10,05,21,8.40
2015,06,10,05,22,8.40
2015,06,10,05,23,8.40
2015,06,10,05,24,8.40
2015,06,10,05,25,8.40
2015,06,10,05,26,8.40
2015,06,10,05,27,8.40
2015,06,10,05,28,8.40
2015,06,10,05,29,8.40
2015,06,10,05,30,8.40
2015,06,10,05,31,8.40
2015,06,10,05,32,8.40
2015,06,10,05,33,8.40
2015,06,10,05,34,8.40
2015,06,10,05,35,8.40
2015,06,10,05,36,8.40
2015,06,10,05,37,8.30
2015,06,10,05,38,8.30
2015,06,10,05,39,8.30
2015,06,10,05,40,8.30
2015,06,10,05,41,8.30
2015,06,10,05,42,8.40
2015,06,10,05,43,8.40
2015,06,10,05,44,8.40
2015,06,10,05,45,8.40
2015,06,10,05,46,8.40
2015,06,10,05,47,8.50
2015,06,10,05,48,8.50
2015,06,10,05,49,8.50
2015,06,10,05,50,8.50
2015,06,10,05,51,8.50
2015,06,10,05,52,8.50
2015,06,10,05,53,8.50
2015,06,10,05,54,8.50
2015,06,10,05,55,8.50
2015,06,10,05,56,8.60
2015,06,10,05,57,8.60
2015,06,10,05,58,8.60
2015,06,10,05,59,8.60
2015,06,10,06,00,8.60
2015,06,10,06,01,8.60
2015,06,10,06,02,8.60
2015,06,10,06,03,8.70
2015,06,10,06,04,8.70
2015,06,10,06,05,8.70
2015,06,10,06,06,8.70
2015,06,10,06,07,8.70
2015,06,10,06,08,8.80
2015,06,10,06,09,8.80
2015,06,10,06,10,8.80
2015,06,10,06,11,8.80
2015,06,10,06,12,8.90
2015,06,10,06,13,8.90
2015,06,10,06,14,9.00
2015,06,10,06,15,9.10
2015,06,10,06,16,9.10
2015,06,10,06,17,9.20
2015,06,10,06,18,9.20
2015,06,10,06,19,9.30
2015,06,10,06,20,9.30
2015,06,10,06,21,9.30
2015,06,10,06,22,9.40
2015,06,10,06,23,9.40
2015,06,10,06,24,9.50
2015,06,10,06,25,9.50
2015,06,10,06,26,9.60
2015,06,10,06,27,9.60
2015,06,10,06,28,9.70
2015,06,10,06,29,9.80
2015,06,10,06,30,9.80
2015,06,10,06,31,9.90
2015,06,10,06,32,10.00
2015,06,10,06,33,10.10
2015,06,10,06,34,10.10
2015,06,10,06,35,10.20
2015,06,10,06,36,10.20
2015,06,10,06,37,10.30
2015,06,10,06,38,10.30
2015,06,10,06,39,10.30
2015,06,10,06,40,10.40
2015,06,10,06,41,10.40
2015,06,10,06,42,10.40
2015,06,10,06,43,10.50
2015,06,10,06,44,10.50
2015,06,10,06,45,10.60
2015,06,10,06,46,10.60
2015,06,10,06,47,10.70
2015,06,10,06,48,10.70
2015,06,10,06,49,10.80
2015,06,10,06,50,10.90
2015,06,10,06,51,10.90
2015,06,10,06,52,11.00
2015,06,10,06,53,11.10
2015,06,10,06,54,11.10
2015,06,10,06,55,11.20
2015,06,10,06,56,11.20
2015,06,10,06,57,11.20
2015,06,10,06,58,11.20
2015,06,10,06,59,11.30
2015,06,10,07,00,11.30
2015,06,10,07,01,11.30
2015,06,10,07,02,11.30
2015,06,10,07,03,11.30
2015,06,10,07,04,11.40
2015,06,10,07,05,11.40
2015,06,10,07,06,11.40
2015,06,10,07,07,11.40
2015,06,10,07,08,11.50
2015,06,10,07,09,11.50
2015,06,10,07,10,11.50
2015,06,10,07,11,11.50
2015,06,10,07,12,11.50
2015,06,10,07,13,11.50
2015,06,10,07,14,11.60
2015,06,10,07,15,11.60
2015,06,10,07,16,11.60
2015,06,10,07,17,11.60
2015,06,10,07,18,11.60
2015,06,10,07,19,11.70
2015,06,10,07,20,11.70
2015,06,10,07,21,11.80
2015,06,10,07,22,11.90
2015,06,10,07,23,11.90
2015,06,10,07,24,12.00
2015,06,10,07,25,12.00
2015,06,10,07,26,12.10
2015,06,10,07,27,12.10
2015,06,10,07,28,12.20
2015,06,10,07,29,12.20
2015,06,10,07,30,12.20
2015,06,10,07,31,12.30
2015,06,10,07,32,12.30
2015,06,10,07,33,12.30
2015,06,10,07,34,12.30
2015,06,10,07,35,12.30
2015,06,10,07,36,12.30
2015,06,10,07,37,12.30
2015,06,10,07,38,12.30
2015,06,10,07,39,12.40
2015,06,10,07,40,12.40
2015,06,10,07,41,12.40
2015,06,10,07,42,12.40
2015,06,10,07,43,12.50
2015,06,10,07,44,12.50
2015,06,10,07,45,12.60
2015,06,10,07,46,12.60
2015,06,10,07,47,12.70
2015,06,10,07,48,12.70
2015,06,10,07,49,12.80
2015,06,10,07,50,12.80
2015,06,10,07,51,12.90
2015,06,10,07,52,13.00
2015,06,10,07,53,13.00
2015,06,10,07,54,13.10
2015,06,10,07,55,13.10
2015,06,10,07,56,13.20
2015,06,10,07,57,13.20
2015,06,10,07,58,13.30
2015,06,10,07,59,13.30
2015,06,10,08,00,13.30
2015,06,10,08,01,13.40
2015,06,10,08,02,13.40
2015,06,10,08,03,13.50
2015,06,10,08,04,13.50
2015,06,10,08,05,13.60
2015,06,10,08,06,13.60
2015,06,10,08,07,13.70
2015,06,10,08,08,13.70
2015,06,10,08,09,13.70
2015,06,10,08,10,13.80
2015,06,10,08,11,13.80
2015,06,10,08,12,13.80
2015,06,10,08,13,13.90
2015,06,10,08,14,13.90
2015,06,10,08,15,13.90
2015,06,10,08,16,13.90
2015,06,10,08,17,13.90
2015,06,10,08,18,13.80
2015,06,10,08,19,13.80
2015,06,10,08,20,13.80
2015,06,10,08,21,13.80
2015,06,10,08,22,13.90
2015,06,10,08,23,13.90
2015,06,10,08,24,13.90
2015,06,10,08,25,13.90
2015,06,10,08,26,13.90
2015,06,10,08,27,14.00
2015,06,10,08,28,14.00
2015,06,10,08,29,14.10
2015,06,10,08,30,14.20
2015,06,10,08,31,14.20
2015,06,10,08,32,14.30
2015,06,10,08,33,14.40
2015,06,10,08,34,14.30
2015,06,10,08,35,14.30
2015,06,10,08,36,14.30
2015,06,10,08,37,14.30
2015,06,10,08,38,14.20
2015,06,10,08,39,14.10
2015,06,10,08,40,14.00
2015,06,10,08,41,13.90
2015,06,10,08,42,13.90
2015,06,10,08,43,13.80
2015,06,10,08,44,13.80
2015,06,10,08,45,13.80
2015,06,10,08,46,13.80
2015,06,10,08,47,13.80
2015,06,10,08,48,13.90
2015,06,10,08,49,13.90
2015,06,10,08,50,13.90
2015,06,10,08,51,14.00
2015,06,10,08,52,13.90
2015,06,10,08,53,14.00
2015,06,10,08,54,14.00
2015,06,10,08,55,14.10
2015,06,10,08,56,14.10
2015,06,10,08,57,14.10
2015,06,10,08,58,14.20
2015,06,10,08,59,14.20
2015,06,10,09,00,14.20
2015,06,10,09,01,14.20
2015,06,10,09,02,14.20
2015,06,10,09,03,14.10
2015,06,10,09,04,14.10
2015,06,10,09,05,14.10
2015,06,10,09,06,14.00
2015,06,10,09,07,14.00
2015,06,10,09,08,14.00
2015,06,10,09,09,14.00
2015,06,10,09,10,14.10
2015,06,10,09,11,14.20
2015,06,10,09,12,14.20
2015,06,10,09,13,14.30
2015,06,10,09,14,14.30
2015,06,10,09,15,14.30
2015,06,10,09,16,14.30
2015,06,10,09,17,14.40
2015,06,10,09,18,14.40
2015,06,10,09,19,14.40
2015,06,10,09,20,14.20
2015,06,10,09,21,14.20
2015,06,10,09,22,14.10
2015,06,10,09,23,14.10
2015,06,10,09,24,14.10
2015,06,10,09,25,14.10
2015,06,10,09,26,14.10
2015,06,10,09,27,14.10
2015,06,10,09,28,14.10
2015,06,10,09,29,14.20
2015,06,10,09,30,14.20
2015,06,10,09,31,14.20
2015,06,10,09,32,14.20
2015,06,10,09,33,14.30
2015,06,10,09,34,14.30
2015,06,10,09,35,14.30
2015,06,10,09,36,14.30
2015,06,10,09,37,14.30
2015,06,10,09,38,14.40
2015,06,10,09,39,14.40
2015,06,10,09,40,14.50
2015,06,10,09,41,14.60
2015,06,10,09,42,14.60
2015,06,10,09,43,14.70
2015,06,10,09,44,14.70
2015,06,10,09,45,14.60
2015,06,10,09,46,14.60
2015,06,10,09,47,14.50
2015,06,10,09,48,14.50
2015,06,10,09,49,14.40
2015,06,10,09,50,14.40
2015,06,10,09,51,14.40
2015,06,10,09,52,14.50
2015,06,10,09,53,14.50
2015,06,10,09,54,14.50
2015,06,10,09,55,14.40
2015,06,10,09,56,14.40
2015,06,10,09,57,14.30
2015,06,10,09,58,14.20
2015,06,10,09,59,14.20
2015,06,10,10,00,14.20
2015,06,10,10,01,14.10
2015,06,10,10,02,14.10
2015,06,10,10,03,14.10
2015,06,10,10,04,14.20
2015,06,10,10,05,14.20
2015,06,10,10,06,14.30
2015,06,10,10,07,14.30
2015,06,10,10,08,14.40
2015,06,10,10,09,14.50
2015,06,10,10,10,14.50
2015,06,10,10,11,14.60
2015,06,10,10,12,14.60
2015,06,10,10,13,14.60
2015,06,10,10,14,14.60
2015,06,10,10,15,14.70
2015,06,10,10,16,14.80
2015,06,10,10,17,14.90
2015,06,10,10,18,14.90
2015,06,10,10,19,15.00
2015,06,10,10,20,15.00
2015,06,10,10,21,15.10
2015,06,10,10,22,15.10
2015,06,10,10,23,15.00
2015,06,10,10,24,14.90
2015,06,10,10,25,14.80
2015,06,10,10,26,14.80
2015,06,10,10,27,14.80
2015,06,10,10,28,14.70
2015,06,10,10,29,14.80
2015,06,10,10,30,14.80
2015,06,10,10,31,14.90
2015,06,10,10,32,15.00
2015,06,10,10,33,15.00
2015,06,10,10,34,15.10
2015,06,10,10,35,15.20
2015,06,10,10,36,15.20
2015,06,10,10,37,15.20
2015,06,10,10,38,15.20
2015,06,10,10,39,15.20
2015,06,10,10,40,15.20
2015,06,10,10,41,15.20
2015,06,10,10,42,15.10
2015,06,10,10,43,15.10
2015,06,10,10,44,15.10
2015,06,10,10,45,15.20
2015,06,10,10,46,15.30
2015,06,10,10,47,15.30
2015,06,10,10,48,15.30
2015,06,10,10,49,15.40
2015,06,10,10,50,15.50
2015,06,10,10,51,15.60
2015,06,10,10,52,15.60
2015,06,10,10,53,15.70
2015,06,10,10,54,15.80
2015,06,10,10,55,15.80
2015,06,10,10,56,15.90
2015,06,10,10,57,15.90
2015,06,10,10,58,16.00
2015,06,10,10,59,16.10
2015,06,10,11,00,16.10
2015,06,10,11,01,16.20
2015,06,10,11,02,16.20
2015,06,10,11,03,16.10
2015,06,10,11,04,16.10
2015,06,10,11,05,16.10
2015,06,10,11,06,16.10
2015,06,10,11,07,16.20
2015,06,10,11,08,16.30
2015,06,10,11,09,16.30
2015,06,10,11,10,16.30
2015,06,10,11,11,16.30
2015,06,10,11,12,16.20
2015,06,10,11,13,16.20
2015,06,10,11,14,16.30
2015,06,10,11,15,16.30
2015,06,10,11,16,16.40
2015,06,10,11,17,16.40
2015,06,10,11,18,16.40
2015,06,10,11,19,16.40
2015,06,10,11,20,16.50
2015,06,10,11,21,16.50
2015,06,10,11,22,16.60
2015,06,10,11,23,16.70
2015,06,10,11,24,16.80
2015,06,10,11,25,16.80
2015,06,10,11,26,16.90
2015,06,10,11,27,17.00
2015,06,10,11,28,17.10
2015,06,10,11,29,17.10
2015,06,10,11,30,17.10
2015,06,10,11,31,17.10
2015,06,10,11,32,17.20
2015,06,10,11,33,17.30
2015,06,10,11,34,17.30
2015,06,10,11,35,17.30
2015,06,10,11,36,17.30
2015,06,10,11,37,17.10
2015,06,10,11,38,17.00
2015,06,10,11,39,17.00
2015,06,10,11,40,17.00
2015,06,10,11,41,17.00
2015,06,10,11,42,17.00
2015,06,10,11,43,17.00
2015,06,10,11,44,16.90
2015,06,10,11,45,16.80
2015,06,10,11,46,16.80
2015,06,10,11,47,16.70
2015,06,10,11,48,16.80
2015,06,10,11,49,16.80
2015,06,10,11,50,16.90
2015,06,10,11,51,16.90
2015,06,10,11,52,17.00
2015,06,10,11,53,17.00
2015,06,10,11,54,17.00
2015,06,10,11,55,17.00
2015,06,10,11,56,16.90
2015,06,10,11,57,17.00
2015,06,10,11,58,17.10
2015,06,10,11,59,17.20
2015,06,10,12,00,17.20
2015,06,10,12,01,17.30
2015,06,10,12,02,17.40
2015,06,10,12,03,17.40
2015,06,10,12,04,17.50
2015,06,10,12,05,17.50
2015,06,10,12,06,17.60
2015,06,10,12,07,17.60
2015,06,10,12,08,17.60
2015,06,10,12,09,17.70
2015,06,10,12,10,17.80
2015,06,10,12,11,18.00
2015,06,10,12,12,18.10
2015,06,10,12,13,18.10
2015,06,10,12,14,18.20
2015,06,10,12,15,18.20
2015,06,10,12,16,18.30
2015,06,10,12,17,18.40
2015,06,10,12,18,18.40
2015,06,10,12,19,18.40
2015,06,10,12,20,18.40
2015,06,10,12,21,18.40
2015,06,10,12,22,18.50
2015,06,10,12,23,18.50
2015,06,10,12,24,18.40
2015,06,10,12,25,18.40
2015,06,10,12,26,18.40
2015,06,10,12,27,18.40
2015,06,10,12,28,18.40
2015,06,10,12,29,18.40
2015,06,10,12,30,18.50
2015,06,10,12,31,18.50
2015,06,10,12,32,18.60
2015,06,10,12,33,18.60
2015,06,10,12,34,18.70
2015,06,10,12,35,18.70
2015,06,10,12,36,18.70
2015,06,10,12,37,18.70
2015,06,10,12,38,18.70
2015,06,10,12,39,18.70
2015,06,10,12,40,18.70
2015,06,10,12,41,18.70
2015,06,10,12,42,18.80
2015,06,10,12,43,18.90
2015,06,10,12,44,18.90
2015,06,10,12,45,19.00
2015,06,10,12,46,19.10
2015,06,10,12,47,19.20
2015,06,10,12,48,19.20
2015,06,10,12,49,19.20
2015,06,10,12,50,19.20
2015,06,10,12,51,19.30
2015,06,10,12,52,19.30
2015,06,10,12,53,19.40
2015,06,10,12,54,19.40
2015,06,10,12,55,19.30
2015,06,10,12,56,19.30
2015,06,10,12,57,19.30
2015,06,10,12,58,19.30
2015,06,10,12,59,19.40
2015,06,10,13,00,19.40
2015,06,10,13,01,19.40
2015,06,10,13,02,19.40
2015,06,10,13,03,19.40
2015,06,10,13,04,19.40
2015,06,10,13,05,19.40
2015,06,10,13,06,19.20
2015,06,10,13,07,19.10
2015,06,10,13,08,19.10
2015,06,10,13,09,19.10
2015,06,10,13,10,19.00
2015,06,10,13,11,19.00
2015,06,10,13,12,18.90
2015,06,10,13,13,18.90
2015,06,10,13,14,18.90
2015,06,10,13,15,18.90
2015,06,10,13,16,18.90
2015,06,10,13,17,18.80
2015,06,10,13,18,18.80
2015,06,10,13,19,18.80
2015,06,10,13,20,18.70
2015,06,10,13,21,18.80
2015,06,10,13,22,18.90
2015,06,10,13,23,19.00
2015,06,10,13,24,19.10
2015,06,10,13,25,19.10
2015,06,10,13,26,19.20
2015,06,10,13,27,19.20
2015,06,10,13,28,19.20
2015,06,10,13,29,19.20
2015,06,10,13,30,19.20
2015,06,10,13,31,19.20
2015,06,10,13,32,19.20
2015,06,10,13,33,19.20
2015,06,10,13,34,19.20
2015,06,10,13,35,19.30
2015,06,10,13,36,19.40
2015,06,10,13,37,19.40
2015,06,10,13,38,19.40
2015,06,10,13,39,19.40
2015,06,10,13,40,19.40
2015,06,10,13,41,19.40
2015,06,10,13,42,19.40
2015,06,10,13,43,19.40
2015,06,10,13,44,19.40
2015,06,10,13,45,19.40
2015,06,10,13,46,19.50
2015,06,10,13,47,19.60
2015,06,10,13,48,19.60
2015,06,10,13,49,19.60
2015,06,10,13,50,19.60
2015,06,10,13,51,19.50
2015,06,10,13,52,19.60
2015,06,10,13,53,19.70
2015,06,10,13,54,19.80
2015,06,10,13,55,19.80
2015,06,10,13,56,19.80
2015,06,10,13,57,19.90
2015,06,10,13,58,19.90
2015,06,10,13,59,19.80
2015,06,10,14,00,19.70
2015,06,10,14,01,19.60
2015,06,10,14,02,19.60
2015,06,10,14,03,19.60
2015,06,10,14,04,19.70
2015,06,10,14,05,19.80
2015,06,10,14,06,19.90
2015,06,10,14,07,20.00
2015,06,10,14,08,20.10
2015,06,10,14,09,20.10
2015,06,10,14,10,20.10
2015,06,10,14,11,20.20
2015,06,10,14,12,20.10
2015,06,10,14,13,20.00
2015,06,10,14,14,19.90
2015,06,10,14,15,19.90
2015,06,10,14,16,19.90
2015,06,10,14,17,20.00
2015,06,10,14,18,20.10
2015,06,10,14,19,20.10
2015,06,10,14,20,20.10
2015,06,10,14,21,20.00
2015,06,10,14,22,20.00
2015,06,10,14,23,20.00
2015,06,10,14,24,20.10
2015,06,10,14,25,20.20
2015,06,10,14,26,20.40
2015,06,10,14,27,20.50
2015,06,10,14,28,20.60
2015,06,10,14,29,20.70
2015,06,10,14,30,20.80
2015,06,10,14,31,20.80
2015,06,10,14,32,20.70
2015,06,10,14,33,20.60
2015,06,10,14,34,20.60
2015,06,10,14,35,20.60
2015,06,10,14,36,20.60
2015,06,10,14,37,20.50
2015,06,10,14,38,20.60
2015,06,10,14,39,20.50
2015,06,10,14,40,20.60
2015,06,10,14,41,20.60
2015,06,10,14,42,20.60
2015,06,10,14,43,20.60
2015,06,10,14,44,20.70
2015,06,10,14,45,20.70
2015,06,10,14,46,20.80
2015,06,10,14,47,20.90
2015,06,10,14,48,21.00
2015,06,10,14,49,21.20
2015,06,10,14,50,21.30
2015,06,10,14,51,21.40
2015,06,10,14,52,21.40
2015,06,10,14,53,21.40
2015,06,10,14,54,21.40
2015,06,10,14,55,21.30
2015,06,10,14,56,21.30
2015,06,10,14,57,21.30
2015,06,10,14,58,21.30
2015,06,10,14,59,21.40
2015,06,10,15,00,21.50
2015,06,10,15,01,21.50
2015,06,10,15,02,21.50
2015,06,10,15,03,21.40
2015,06,10,15,04,21.40
2015,06,10,15,05,21.30
2015,06,10,15,06,21.30
2015,06,10,15,07,21.20
2015,06,10,15,08,21.10
2015,06,10,15,09,21.00
2015,06,10,15,10,20.90
2015,06,10,15,11,20.90
2015,06,10,15,12,20.80
2015,06,10,15,13,20.80
2015,06,10,15,14,20.90
2015,06,10,15,15,21.00
2015,06,10,15,16,21.10
2015,06,10,15,17,21.20
2015,06,10,15,18,21.30
2015,06,10,15,19,21.30
2015,06,10,15,20,21.30
2015,06,10,15,21,21.30
2015,06,10,15,22,21.30
2015,06,10,15,23,21.30
2015,06,10,15,24,21.20
2015,06,10,15,25,21.10
2015,06,10,15,26,21.10
2015,06,10,15,27,21.20
2015,06,10,15,28,21.20
2015,06,10,15,29,21.20
2015,06,10,15,30,21.30
2015,06,10,15,31,21.30
2015,06,10,15,32,21.30
2015,06,10,15,33,21.30
2015,06,10,15,34,21.30
2015,06,10,15,35,21.30
2015,06,10,15,36,21.30
2015,06,10,15,37,21.40
2015,06,10,15,38,21.40
2015,06,10,15,39,21.40
2015,06,10,15,40,21.50
2015,06,10,15,41,21.50
2015,06,10,15,42,21.60
2015,06,10,15,43,21.60
2015,06,10,15,44,21.40
2015,06,10,15,45,21.40
2015,06,10,15,46,21.40
2015,06,10,15,47,21.50
2015,06,10,15,48,21.50
2015,06,10,15,49,21.50
2015,06,10,15,50,21.50
2015,06,10,15,51,21.60
2015,06,10,15,52,21.50
2015,06,10,15,53,21.40
2015,06,10,15,54,21.30
2015,06,10,15,55,21.30
2015,06,10,15,56,21.30
2015,06,10,15,57,21.30
2015,06,10,15,58,21.20
2015,06,10,15,59,21.20
2015,06,10,16,00,21.30
2015,06,10,16,01,21.40
2015,06,10,16,02,21.50
2015,06,10,16,03,21.60
2015,06,10,16,04,21.70
2015,06,10,16,05,21.80
2015,06,10,16,06,21.80
2015,06,10,16,07,21.80
2015,06,10,16,08,21.80
2015,06,10,16,09,21.80
2015,06,10,16,10,21.80
2015,06,10,16,11,21.80
2015,06,10,16,12,21.90
2015,06,10,16,13,21.90
2015,06,10,16,14,21.80
2015,06,10,16,15,21.70
2015,06,10,16,16,21.50
2015,06,10,16,17,21.40
2015,06,10,16,18,21.30
2015,06,10,16,19,21.30
2015,06,10,16,20,21.30
2015,06,10,16,21,21.20
2015,06,10,16,22,21.20
2015,06,10,16,23,21.10
2015,06,10,16,24,21.00
2015,06,10,16,25,21.00
2015,06,10,16,26,21.00
2015,06,10,16,27,20.90
2015,06,10,16,28,21.00
2015,06,10,16,29,21.00
2015,06,10,16,30,21.10
2015,06,10,16,31,21.10
2015,06,10,16,32,21.20
2015,06,10,16,33,21.20
2015,06,10,16,34,21.20
2015,06,10,16,35,21.20
2015,06,10,16,36,21.10
2015,06,10,16,37,21.10
2015,06,10,16,38,21.10
2015,06,10,16,39,21.10
2015,06,10,16,40,21.10
2015,06,10,16,41,21.10
2015,06,10,16,42,21.10
2015,06,10,16,43,21.10
2015,06,10,16,44,21.10
2015,06,10,16,45,21.10
2015,06,10,16,46,21.20
2015,06,10,16,47,21.20
2015,06,10,16,48,21.20
2015,06,10,16,49,21.30
2015,06,10,16,50,21.40
2015,06,10,16,51,21.50
2015,06,10,16,52,21.60
2015,06,10,16,53,21.70
2015,06,10,16,54,21.70
2015,06,10,16,55,21.70
2015,06,10,16,56,21.80
2015,06,10,16,57,21.70
2015,06,10,16,58,21.70
2015,06,10,16,59,21.60
2015,06,10,17,00,21.60
2015,06,10,17,01,21.70
2015,06,10,17,02,21.70
2015,06,10,17,03,21.70
2015,06,10,17,04,21.70
2015,06,10,17,05,21.70
2015,06,10,17,06,21.60
2015,06,10,17,07,21.60
2015,06,10,17,08,21.60
2015,06,10,17,09,21.60
2015,06,10,17,10,21.60
2015,06,10,17,11,21.60
2015,06,10,17,12,21.60
2015,06,10,17,13,21.50
2015,06,10,17,14,21.40
2015,06,10,17,15,21.40
2015,06,10,17,16,21.40
2015,06,10,17,17,21.30
2015,06,10,17,18,21.30
2015,06,10,17,19,21.30
2015,06,10,17,20,21.30
2015,06,10,17,21,21.40
2015,06,10,17,22,21.40
2015,06,10,17,23,21.50
2015,06,10,17,24,21.50
2015,06,10,17,25,21.60
2015,06,10,17,26,21.60
2015,06,10,17,27,21.50
2015,06,10,17,28,21.50
2015,06,10,17,29,21.40
2015,06,10,17,30,21.40
2015,06,10,17,31,21.30
2015,06,10,17,32,21.30
2015,06,10,17,33,21.30
2015,06,10,17,34,21.20
2015,06,10,17,35,21.20
2015,06,10,17,36,21.10
2015,06,10,17,37,21.10
2015,06,10,17,38,21.10
2015,06,10,17,39,21.10
2015,06,10,17,40,21.00
2015,06,10,17,41,20.90
2015,06,10,17,42,20.90
2015,06,10,17,43,20.80
2015,06,10,17,44,20.80
2015,06,10,17,45,20.80
2015,06,10,17,46,20.80
2015,06,10,17,47,20.90
2015,06,10,17,48,20.90
2015,06,10,17,49,20.90
2015,06,10,17,50,20.90
2015,06,10,17,51,20.90
2015,06,10,17,52,20.90
2015,06,10,17,53,20.70
2015,06,10,17,54,20.60
2015,06,10,17,55,20.50
2015,06,10,17,56,20.40
2015,06,10,17,57,20.30
2015,06,10,17,58,20.30
2015,06,10,17,59,20.30
2015,06,10,18,00,20.20
2015,06,10,18,01,20.20
2015,06,10,18,02,20.20
2015,06,10,18,03,20.10
2015,06,10,18,04,20.00
2015,06,10,18,05,20.00
2015,06,10,18,06,19.90
2015,06,10,18,07,19.90
2015,06,10,18,08,19.90
2015,06,10,18,09,19.90
2015,06,10,18,10,19.90
2015,06,10,18,11,19.90
2015,06,10,18,12,19.80
2015,06,10,18,13,19.80
2015,06,10,18,14,19.80
2015,06,10,18,15,19.80
2015,06,10,18,16,19.80
2015,06,10,18,17,19.80
2015,06,10,18,18,19.70
2015,06,10,18,19,19.70
2015,06,10,18,20,19.60
2015,06,10,18,21,19.60
2015,06,10,18,22,19.50
2015,06,10,18,23,19.40
2015,06,10,18,24,19.20
2015,06,10,18,25,19.10
2015,06,10,18,26,19.00